GW2918 Weather Reports


time (UTC)temp
F
wind
direction
speed
knots
gust
knots
rain 1hr
in
rain 24hr
in
rain mn
in
humidity
%
barometer
mb
20260506021246 64 166 1.7 6.1 0.00 0.00 0.00 65 1009.5
20260506020246 64 193 2.6 3.5 0.00 0.00 0.00 64 1009.4
20260506015241 64 186 1.7 2.6 0.00 0.00 0.00 65 1009.4
20260506014240 65 151 1.7 7.0 0.00 0.00 0.00 62 1009.2
20260506013240 65 151 2.6 4.3 0.00 0.00 0.00 62 1009.2
20260506012239 66 172 1.7 7.0 0.00 0.00 0.00 61 1009.4
20260506011238 66 195 4.3 4.3 0.00 0.00 0.00 60 1009.2
20260506010233 67 211 0.9 7.0 0.00 0.00 0.00 59 1009.1
20260506005233 67 176 2.6 6.1 0.00 0.00 0.00 58 1009.0
20260506004232 67 175 2.6 5.2 0.00 0.00 0.00 58 1009.0
20260506003231 67 184 0.9 3.5 0.00 0.00 0.00 59 1009.0
20260506002229 66 199 5.2 7.8 0.00 0.00 0.00 58 1008.5
20260506001229 67 150 1.7 3.5 0.00 0.00 0.00 58 1008.6
20260506000223 67 193 2.6 3.5 0.00 0.00 0.00 57 1008.4
20260505235224 68 178 1.7 5.2 0.00 0.00 0.00 57 1008.7
20260505234223 68 211 5.2 11.3 0.00 0.00 0.00 56 1008.8
20260505233218 68 210 3.5 4.3 0.00 0.00 0.00 56 1008.6
20260505232218 69 225 3.5 6.1 0.00 0.00 0.00 55 1008.5
20260505231214 69 227 4.3 5.2 0.00 0.00 0.00 53 1008.5
20260505230213 69 306 2.6 7.0 0.00 0.00 0.00 52 1008.3
20260505225212 70 251 2.6 5.2 0.00 0.00 0.00 51 1008.4
20260505224212 70 227 2.6 7.0 0.00 0.00 0.00 50 1008.1
20260505223211 71 213 7.0 11.3 0.00 0.00 0.00 50 1008.3
20260505222209 71 207 5.2 11.3 0.00 0.00 0.00 49 1008.0
20260505221209 71 213 1.7 8.7 0.00 0.00 0.00 49 1007.9
20260505220204 71 195 3.5 8.7 0.00 0.00 0.00 48 1007.8
20260505215159 71 205 5.2 9.6 0.00 0.00 0.00 49 1007.6
20260505214154 71 227 6.1 7.8 0.00 0.00 0.00 47 1007.6
20260505213153 72 235 7.0 15.6 0.00 0.00 0.00 45 1007.6
20260505212153 72 209 13.0 20.0 0.00 0.00 0.00 45 1007.4
20260505211153 73 221 6.1 17.4 0.00 0.00 0.00 44 1007.1
20260505210152 73 212 6.1 20.0 0.00 0.00 0.00 43 1007.1
20260505205148 74 180 4.3 7.8 0.00 0.00 0.00 45 1007.0
20260505204148 75 166 1.7 16.5 0.00 0.00 0.00 46 1007.2
20260505203148 73 171 3.5 14.8 0.00 0.00 0.00 47 1006.9
20260505202146 73 183 5.2 15.6 0.00 0.00 0.00 48 1007.1
20260505201140 73 230 4.3 11.3 0.00 0.00 0.00 49 1007.1
20260505200135 73 210 6.1 8.7 0.00 0.00 0.00 51 1007.1
20260505195134 72 165 5.2 16.5 0.00 0.00 0.00 52 1007.2
20260505194133 71 222 10.4 17.4 0.00 0.00 0.00 50 1007.2
20260505193133 71 211 13.0 15.6 0.00 0.00 0.00 49 1007.1
20260505192128 72 215 14.8 26.9 0.00 0.00 0.00 48 1006.8
20260505191124 73 210 10.4 14.8 0.00 0.00 0.00 46 1006.6
20260505190121 73 176 3.5 16.5 0.00 0.00 0.00 48 1006.7
20260505185120 74 164 5.2 12.2 0.00 0.00 0.00 46 1006.8
20260505184119 73 210 11.3 15.6 0.00 0.00 0.00 48 1007.2
20260505183114 72 191 4.3 19.1 0.00 0.00 0.00 51 1007.3
20260505182112 75 219 7.0 12.2 0.00 0.00 0.00 51 1007.8
20260505181112 73 211 9.6 18.2 0.00 0.00 0.00 50 1007.7
20260505180111 73 208 3.5 16.5 0.00 0.00 0.00 51 1007.9
20260505175109 71 208 5.2 16.5 0.00 0.00 0.00 52 1008.0
20260505174108 73 198 15.6 17.4 0.00 0.00 0.00 52 1008.1
20260505173108 72 195 12.2 13.9 0.00 0.00 0.00 51 1008.4
20260505172102 71 215 12.2 14.8 0.00 0.00 0.00 55 1008.5
20260505171100 72 176 5.2 14.8 0.00 0.00 0.00 53 1008.0
20260505170059 72 232 6.1 11.3 0.00 0.00 0.00 54 1008.0
20260505165056 71 238 5.2 20.0 0.00 0.00 0.00 57 1007.7
20260505164055 72 220 11.3 15.6 0.00 0.00 0.00 55 1008.4
20260505163050 71 225 15.6 20.0 0.00 0.00 0.00 56 1008.5
20260505162046 71 196 7.8 11.3 0.00 0.00 0.00 57 1008.9
20260505161046 71 171 4.3 8.7 0.00 0.00 0.00 57 1008.9
20260505153038 70 188 5.2 16.5 0.00 0.00 0.00 59 1009.0
20260505152035 70 191 6.1 16.5 0.00 0.00 0.00 59 1009.0
20260505151034 69 211 6.1 11.3 0.00 0.00 0.00 60 1009.2
20260505125006 58 200 8.7 13.9 0.00 0.00 0.00 81 1009.9
20260505124005 61 202 17.4 18.2 0.00 0.00 0.00 65 1009.8
20260505123004 62 165 3.5 11.3 0.00 0.00 0.00 64 1009.5
20260505122004 62 186 4.3 13.0 0.00 0.00 0.00 65 1009.6
20260505121002 63 189 4.3 14.8 0.00 0.00 0.00 64 1009.5
20260505115958 63 206 5.2 10.4 0.00 0.00 0.00 67 1009.5
20260505114958 62 208 9.6 10.4 0.00 0.00 0.00 66 1009.3
20260505113957 61 198 3.5 8.7 0.00 0.00 0.00 68 1009.3
20260505112955 59 199 4.3 10.4 0.00 0.00 0.00 70 1009.3
20260505111955 59 207 2.6 12.2 0.00 0.00 0.00 71 1009.4
20260505110952 59 160 4.3 7.0 0.00 0.00 0.00 70 1009.4
20260505101939 57 183 2.6 5.2 0.00 0.00 0.00 73 1009.0
20260505100934 57 186 3.5 10.4 0.00 0.00 0.00 72 1008.9
20260505095932 58 165 4.3 7.8 0.00 0.00 0.00 71 1008.8
20260505094931 59 196 7.0 11.3 0.00 0.00 0.00 70 1008.5
20260505093930 58 158 5.2 9.6 0.00 0.00 0.00 70 1008.4
20260505092925 58 167 2.6 9.6 0.00 0.00 0.00 71 1008.5
20260505091926 58 143 1.7 11.3 0.00 0.00 0.00 70 1008.3
20260505090921 58 199 4.3 8.7 0.00 0.00 0.00 70 1008.4
20260505085916 58 147 3.5 9.6 0.00 0.00 0.00 70 1008.7
20260505084912 58 180 3.5 7.0 0.00 0.00 0.00 70 1008.3
20260505083908 59 203 7.8 13.9 0.00 0.00 0.00 69 1008.4
20260505082907 59 191 6.1 9.6 0.00 0.00 0.00 69 1008.4
20260505081906 58 173 3.5 5.2 0.00 0.00 0.00 69 1008.4
20260505080905 59 189 5.2 6.1 0.00 0.00 0.00 68 1008.4
20260505075902 59 189 6.1 7.0 0.00 0.00 0.00 67 1008.6
20260505074857 59 169 2.6 7.8 0.00 0.00 0.00 66 1008.1
20260505073857 59 145 3.5 8.7 0.00 0.00 0.00 65 1008.4
20260505072852 59 143 1.7 7.0 0.00 0.00 0.00 66 1008.5
20260505071850 59 178 1.7 7.0 0.00 0.00 0.00 65 1008.4
20260505070850 59 159 3.5 7.8 0.00 0.00 0.00 65 1008.3
20260505065848 58 192 3.5 6.1 0.00 0.00 0.00 65 1008.5
20260505064847 58 176 2.6 6.1 0.00 0.00 0.00 65 1008.3
20260505063843 59 180 3.5 6.1 0.00 0.00 0.00 64 1008.5
20260505062841 59 199 2.6 4.3 0.00 0.00 0.00 64 1008.4
20260505061841 59 146 1.7 7.8 0.00 0.00 0.00 63 1008.6
20260505060841 59 172 2.6 7.0 0.00 0.00 0.00 62 1008.5
20260505055840 59 169 3.5 7.0 0.00 0.00 0.00 62 1008.8
20260505054839 59 188 4.3 7.0 0.00 0.00 0.00 61 1009.0
20260505053835 59 187 4.3 11.3 0.00 0.00 0.00 61 1008.9
20260505052834 59 152 4.3 11.3 0.00 0.00 0.00 61 1008.9
20260505051834 59 168 4.3 8.7 0.00 0.00 0.00 61 1008.7
20260505050829 59 166 3.5 10.4 0.00 0.00 0.00 60 1008.9
20260505040821 59 197 6.1 7.8 0.00 0.00 0.00 60 1008.6
20260505035821 59 154 3.5 10.4 0.00 0.00 0.00 59 1008.5
20260505034820 59 195 4.3 6.1 0.00 0.00 0.00 59 1008.4
20260505033820 60 149 6.1 7.0 0.00 0.00 0.00 58 1008.3
20260505032815 60 178 2.6 8.7 0.00 0.00 0.00 58 1008.3
20260505031813 61 181 2.6 11.3 0.00 0.00 0.00 57 1008.4
20260505030813 61 205 2.6 10.4 0.00 0.00 0.00 56 1008.5
20260505025810 61 176 6.1 9.6 0.00 0.00 0.00 56 1008.3
20260505024806 61 176 6.1 9.6 0.00 0.00 0.00 55 1008.5
20260505023806 62 187 5.2 12.2 0.00 0.00 0.00 55 1008.5
20260505022806 61 198 7.8 10.4 0.00 0.00 0.00 55 1008.8